Location: Absher
(46.5583°N, 107.9840°W)
Time: 20:55:49
(UTC+00:00)

TIGRISAT - Pass Details

Date: 07 April 2023
Orbit: 599 x 682 km, 97.7° (Epoch: 31 May)

Event Time Altitude Azimuth Distance (km) Brightness Sun altitude
Rises 11:59:42 0° 168° (SSE) 2,950 ? -7.6°
Reaches altitude 10° 12:01:52 10° 169° (S) 2,057 ? -7.2°
Maximum altitude 12:06:22 82° 255° (WSW) 678 ? -6.5°
Drops below altitude 10° 12:11:02 10° 345° (NNW) 2,118 ? -5.7°
Sets 12:13:18 0° 347° (NNW) 3,045 ? -5.3°
